Aduana, Mexico

1:50 AM on December 12, 2017 (GMT +0000)
Aduana

Weather History for 76590 - April, 2013

Change the Weather History Date:

Wednesday, April 17, 2013

  Actual Average Record
Temperature  
Mean Temperature 82 °F -  
Max Temperature 86 °F 86 °F - ()
Min Temperature 77 °F 70 °F - ()
Cooling Degree Days 16    
Growing Degree Days 32 (Base 50)    
Moisture  
Dew Point 72 °F    
Average Humidity 77    
Maximum Humidity 89    
Minimum Humidity 23    
Precipitation  
Precipitation 0.00 in - - ()
Sea Level Pressure  
Sea Level Pressure 29.96 in    
Wind  
Wind Speed 10 mph ()    
Max Wind Speed 18 mph    
Max Gust Speed -    
Visibility 7.0 miles    
Events      
T = Trace of Precipitation, MM = Missing Value Source: Averaged Metar Reports

Daily Weather History Graph

Daily Weather History Graph

Search for Another Location

Airport or City:

Trip Planner

Search our weather history database for the weather conditions in past years. The results will help you decide how hot, cold, wet, or windy it might be!

Date:

Astronomy

Apr. 17, 2013 Rise Set
Actual Time 11:26 AM UTC 12:07 AM UTC
Civil Twilight 11:04 AM UTC 12:30 AM UTC
Nautical Twilight 10:37 AM UTC 12:56 AM UTC
Astronomical Twilight 10:10 AM UTC 1:23 AM UTC
Moon 4:54 PM UTC (4/17) 5:29 AM UTC (4/17)
Length of Visible Light 13h 25m
Length of Day
12h 40m
Waxing Crescent, 40% of the Moon is Illuminated
Apr 17
Waxing Crescent
Apr 18
First Quarter
Apr 25
Full
May 2
Last Quarter
May 10
New

Hourly Weather History & Observations

Time (GMT) Temp. Heat Index Dew Point Humidity Pressure Visibility Wind Dir Wind Speed Gust Speed Precip Events Conditions
12:43 AM 80.6 °F 85.4 °F 73.4 °F 79% 29.97 in 7.0 mi ESE 13.8 mph - N/A   Scattered Clouds
1:44 AM 80.6 °F 86.2 °F 75.2 °F 84% 29.99 in 7.0 mi ESE 8.1 mph - N/A   Scattered Clouds
2:46 AM 80.6 °F 86.2 °F 75.2 °F 84% 30.00 in 7.0 mi ESE 9.2 mph - N/A   Scattered Clouds
3:46 AM 78.8 °F - 73.4 °F 83% 30.01 in 7.0 mi ESE 11.5 mph - N/A   Scattered Clouds
4:47 AM 78.8 °F - 75.2 °F 89% 30.00 in 7.0 mi ESE 8.1 mph - N/A   Scattered Clouds
5:46 AM 78.8 °F - 75.2 °F 89% 29.98 in 7.0 mi East 9.2 mph - N/A   Scattered Clouds
6:50 AM 78.8 °F - 75.2 °F 89% 29.96 in 7.0 mi ESE 9.2 mph - N/A   Scattered Clouds
7:40 AM 78.8 °F - 75.2 °F 89% 29.95 in 7.0 mi ESE 6.9 mph - N/A   Scattered Clouds
8:44 AM 78.8 °F - 75.2 °F 89% 29.93 in 7.0 mi ESE 8.1 mph - N/A   Scattered Clouds
9:40 AM 78.8 °F - 75.2 °F 89% 29.95 in 7.0 mi East 8.1 mph - N/A   Scattered Clouds
10:45 AM 77.0 °F - 73.4 °F 89% 29.96 in 7.0 mi ESE 3.5 mph - N/A   Scattered Clouds
11:47 AM 77.0 °F - 73.4 °F 89% 29.96 in 7.0 mi East 4.6 mph - N/A   Scattered Clouds
12:40 PM 80.6 °F - 39.2 °F 23% 29.98 in 7.0 mi East 10.4 mph - N/A   Partly Cloudy
1:42 PM 82.4 °F 89.5 °F 75.2 °F 79% 29.98 in 7.0 mi East 16.1 mph - N/A   Mostly Cloudy
2:46 PM 82.4 °F 89.5 °F 75.2 °F 79% 29.99 in 7.0 mi ESE 17.3 mph - N/A   Mostly Cloudy
3:43 PM 84.2 °F 92.3 °F 75.2 °F 74% 29.97 in 7.0 mi SE 10.4 mph - N/A   Mostly Cloudy
4:42 PM 84.2 °F 90.9 °F 73.4 °F 70% 29.96 in 7.0 mi SE 18.4 mph - N/A   Mostly Cloudy
5:45 PM 86.0 °F 93.4 °F 73.4 °F 66% 29.96 in 7.0 mi SE 16.1 mph - N/A   Mostly Cloudy
6:44 PM 84.2 °F 90.9 °F 73.4 °F 70% 29.94 in 7.0 mi SE 15.0 mph - N/A   Mostly Cloudy
7:45 PM 84.2 °F 89.6 °F 71.6 °F 66% 29.93 in 7.0 mi SE 16.1 mph - N/A   Mostly Cloudy
8:42 PM 84.2 °F 89.6 °F 71.6 °F 66% 29.92 in 7.0 mi SE 16.1 mph - N/A   Mostly Cloudy
9:41 PM 82.4 °F 87.2 °F 71.6 °F 70% 29.90 in 7.0 mi SE 15.0 mph - N/A   Mostly Cloudy
10:48 PM 82.4 °F 87.2 °F 71.6 °F 70% 29.91 in 7.0 mi ESE 10.4 mph - N/A   Mostly Cloudy
11:45 PM 80.6 °F 84.6 °F 71.6 °F 74% 29.92 in 7.0 mi SE 15.0 mph - N/A   Scattered Clouds